Flag for Spain Weather past 2 weeks in Córdoba, Spain

Now
63 °F

Clear.


Feels Like: 63 °F
Forecast: 60 / 84 °F
Wind: No wind

Location: Cordoba / Aeropuerto

Current Time: Oct 22, 2014 at 3:04:19 AM

Latest Report: Oct 22, 2014 at 1:00 AM


Visibility: 10 mi

Pressure: 30.27 "Hg

Humidity: 83%

Dew point: 57 °F

Location of CórdobaLocation

Historic Weather in Córdoba — Graph

°F

Córdoba temperature yesterday

Maximum temperature yesterday: 88 °F (at 5:00 PM)
Minimum temperature yesterday: 57 °F (at 5:00 AM)
Average temperature yesterday: 69 °F

Past Weeks' High & Low Weather Summary

 TemperatureHumidityPressure
High90 °F (Oct 20, 5:00 PM)100% (Oct 7, 6:45 AM)30.27 "Hg (Oct 7, 6:45 AM)
Low54 °F (Oct 13, 8:00 AM)22% (Oct 20, 5:00 PM)29.71 "Hg (Oct 11, 5:00 PM)
Average67 °F78%29.99 "Hg
* Reported Oct 7 1:00 AM — Oct 22 1:00 AM, Córdoba, Weather by CustomWeather, © 2014

Note: Actual official high and low records may vary slightly from our data, if they occured in-between our weather recording intervals... More about our weather records

Advertising

Córdoba weather history for previous 24 hours

 ConditionsComfort  
Time TempWeatherWind HumidityBarometerVisibility
1:00 AM
Oct 22
63 °FClear.No wind83%30.27 "Hg10 mi
12:00 AM64 °FClear.No wind78%30.27 "Hg10 mi
11:00 PM
Oct 21
68 °FClear.No wind69%30.27 "Hg10 mi
10:00 PM68 °FClear.No wind73%30.24 "Hg10 mi
9:00 PM70 °FClear.No wind73%30.24 "Hg10 mi
8:00 PM77 °FSunny.No wind44%30.21 "Hg10 mi
7:00 PM84 °FSunny.1 mph45%30.18 "Hg6 mi
6:00 PM86 °FSunny.2 mph40%30.18 "Hg10 mi
5:00 PM88 °FSunny.2 mph33%30.18 "Hg10 mi
3:00 PM84 °FPassing clouds.5 mph40%30.21 "HgN/A
2:00 PM81 °FPassing clouds.5 mph48%30.21 "HgN/A
1:00 PM77 °FPassing clouds.7 mph51%30.24 "HgN/A
12:00 PM73 °FPassing clouds.6 mph53%30.24 "HgN/A
11:00 AM68 °FSunny.10 mph64%30.24 "Hg10 mi
10:00 AM63 °FSunny.7 mph77%30.21 "Hg10 mi
9:00 AM59 °FClear.6 mph82%30.18 "Hg10 mi
8:00 AM59 °FClear.1 mph88%30.18 "Hg10 mi
7:00 AM59 °FClear.2 mph88%30.18 "Hg10 mi
6:00 AM57 °FClear.No wind94%30.15 "Hg10 mi
5:00 AM57 °FClear.No wind100%30.15 "Hg10 mi
4:00 AM59 °FClear.No wind94%30.15 "Hg10 mi
3:00 AM59 °FClear.No wind94%30.15 "Hg10 mi
Weather by CustomWeather, © 2014

See weather overviewHow to use our weather pages